Wichita Jabara, KS

10:27 PM CDT on April 21, 2018 (GMT -0500)
Col Jabara

Weather History for KAAO - December, 2012

Change the Weather History Date:

Wednesday, December 19, 2012

  Actual Average (KIAB) Record (KIAB)
Temperature  
Mean Temperature 46 °F -  
Max Temperature 60 °F 40 °F 60 °F (2013)
Min Temperature 32 °F 23 °F 8 °F (1996)
Degree Days  
Heating Degree Days 18    
Moisture  
Dew Point 37 °F    
Average Humidity 75    
Maximum Humidity 100    
Minimum Humidity 42    
Precipitation  
Precipitation 0.02 in - - ()
Sea Level Pressure  
Sea Level Pressure 29.58 in    
Wind  
Wind Speed 11 mph (NE)    
Max Wind Speed 29 mph    
Max Gust Speed 45 mph    
Visibility 8 miles    
Events Rain , Snow    
Averages and records for this station are not official NWS values.
T = Trace of Precipitation, MM = Missing Value Source: NWS Daily Summary

Daily Weather History Graph

Daily Weather History Graph

Search for Another Location

Airport or City:

Astronomy

Dec. 19, 2012 Rise Set
Actual Time 7:39 AM CST 5:12 PM CST
Civil Twilight 7:10 AM CST 5:42 PM CST
Nautical Twilight 6:37 AM CST 6:15 PM CST
Astronomical Twilight 6:05 AM CST 6:47 PM CST
Moon 11:56 AM CST (12/19) No Moon Set
Length of Visible Light 10h 31m
Length of Day
9h 33m
Waxing Crescent, 45% of the Moon is Illuminated
Dec 19
Waxing Crescent
Dec 19
First Quarter
Dec 28
Full
Jan 4
Last Quarter
Jan 11
New

Hourly Weather History & Observations

Time (CST) Temp. Windchill Dew Point Humidity Pressure Visibility Wind Dir Wind Speed Gust Speed Precip Events Conditions
12:54 AM 37.9 °F 33.5 °F 26.1 °F 62% 29.80 in 10.0 mi East 5.8 mph - N/A   Clear
1:54 AM 37.9 °F 32.7 °F 27.0 °F 65% 29.78 in 10.0 mi East 6.9 mph - N/A   Clear
2:54 AM 41.0 °F 36.4 °F 28.0 °F 60% 29.77 in 10.0 mi East 6.9 mph - N/A   Clear
3:54 AM 43.0 °F 38.8 °F 30.0 °F 60% 29.75 in 10.0 mi East 6.9 mph - N/A   Clear
4:54 AM 44.1 °F 40.1 °F 30.0 °F 58% 29.73 in 10.0 mi ENE 6.9 mph - N/A   Scattered Clouds
5:54 AM 44.1 °F 38.6 °F 30.9 °F 60% 29.72 in 10.0 mi East 10.4 mph 20.7 mph N/A   Clear
6:54 AM 43.0 °F 36.8 °F 30.9 °F 62% 29.72 in 10.0 mi East 11.5 mph - N/A   Clear
7:54 AM 42.1 °F 34.9 °F 30.9 °F 65% 29.70 in 10.0 mi East 13.8 mph - N/A   Clear
8:54 AM 42.1 °F 35.2 °F 30.9 °F 65% 29.70 in 10.0 mi East 12.7 mph - N/A   Overcast
9:54 AM 42.1 °F 34.5 °F 32.0 °F 67% 29.68 in 10.0 mi ESE 15.0 mph 24.2 mph N/A   Overcast
10:54 AM 43.0 °F 36.4 °F 33.1 °F 68% 29.64 in 10.0 mi East 12.7 mph 23.0 mph N/A   Partly Cloudy
11:54 AM 55.0 °F - 34.0 °F 45% 29.62 in 10.0 mi East 8.1 mph - N/A   Clear
12:54 PM 57.9 °F - 35.1 °F 42% 29.56 in 10.0 mi ESE 11.5 mph - N/A   Partly Cloudy
1:54 PM 57.9 °F - 39.0 °F 49% 29.50 in 10.0 mi ESE 8.1 mph - N/A   Scattered Clouds
2:03 PM 59.0 °F - 39.2 °F 48% 29.48 in 10.0 mi ESE 15.0 mph 19.6 mph N/A   Mostly Cloudy
2:54 PM 60.1 °F - 43.0 °F 53% 29.47 in 10.0 mi SE 6.9 mph - N/A   Overcast
3:54 PM 51.1 °F - 45.0 °F 80% 29.48 in 9.0 mi ESE 5.8 mph - N/A   Overcast
4:18 PM 51.8 °F - 46.4 °F 82% 29.46 in 8.0 mi East 5.8 mph - N/A   Overcast
4:54 PM 51.1 °F - 46.0 °F 83% 29.45 in 7.0 mi East 6.9 mph - N/A   Overcast
5:54 PM 50.0 °F - 46.0 °F 86% 29.48 in 8.0 mi North 5.8 mph - N/A   Overcast
6:54 PM 48.0 °F - 45.0 °F 89% 29.48 in 6.0 mi North 8.1 mph - N/A   Overcast
7:05 PM 48.2 °F - 44.6 °F 87% 29.48 in 5.0 mi North 8.1 mph - N/A   Overcast
7:19 PM 46.4 °F 41.5 °F 44.6 °F 93% 29.49 in 4.0 mi North 10.4 mph - N/A   Overcast
7:45 PM 46.4 °F 40.1 °F 44.6 °F 93% 29.50 in 3.0 mi NNW 15.0 mph - N/A   Overcast
7:54 PM 46.0 °F 40.2 °F 44.1 °F 93% 29.52 in 3.0 mi NNW 12.7 mph - N/A   Overcast
8:06 PM 46.4 °F 40.7 °F 44.6 °F 93% 29.51 in 1.8 mi NNW 12.7 mph - N/A   Overcast
8:46 PM 42.8 °F 34.0 °F 42.8 °F 100% 29.48 in 2.5 mi North 20.7 mph 27.6 mph N/A   Overcast
8:54 PM 42.1 °F 33.1 °F 41.0 °F 96% 29.52 in 2.5 mi NNW 20.7 mph 27.6 mph N/A   Overcast
9:11 PM 41.0 °F 31.4 °F 39.2 °F 93% 29.52 in 4.0 mi North 21.9 mph 27.6 mph N/A   Overcast
9:36 PM 39.2 °F 29.0 °F 37.4 °F 93% 29.54 in 6.0 mi NNW 21.9 mph 28.8 mph 0.00 in Rain Light Rain
9:54 PM 37.9 °F 27.3 °F 37.0 °F 97% 29.56 in 4.0 mi NNW 21.9 mph 26.5 mph 0.01 in Rain Rain
10:54 PM 35.1 °F 23.3 °F 33.1 °F 92% 29.54 in 10.0 mi NNW 23.0 mph 33.4 mph 0.01 in   Overcast
11:37 PM 33.8 °F 21.0 °F 32.0 °F 93% 29.58 in 8.0 mi NW 25.3 mph 35.7 mph 0.00 in Snow Light Snow
11:54 PM 32.0 °F 17.9 °F 30.0 °F 92% 29.61 in 2.5 mi NW 28.8 mph 44.9 mph 0.00 in Snow Light Snow